Regional Weather Roundup
Issued by NWS

Home | Current Version | Previous Version | Text Only | Print | Product List | Glossary On
Versions: 1 2 3 4 5 6 7 8 9 10 11 12 13 14 15 16 17 18 19 20 21 22 23 24 25 26 27 28 29 30 31 32 33 34 35 36 37 38 39 40 41 42 43 44 45 46 47 48 49 50
000
ASUS46 KSTO 271304
RWRCA

NORTHERN AND CENTRAL CA REGIONAL WEATHER ROUNDUP
NATIONAL WEATHER SERVICE SACRAMENTO CA
500 AM PST SAT DEC 27 2014

NOTE: FAIR INDICATES FEW OR NO CLOUDS BELOW 12,000 FEET WITH NO
SIGNIFICANT WEATHER AND/OR OBSTRUCTIONS TO VISIBILITY.

CAZ001-003-271400-
NORTHWEST AREA

CITY           SKY/WX    TMP DP  RH WIND       PRES   REMARKS
CRESCENT CITY  CLEAR     42  34  73 E5        30.29S
UKIAH          CLEAR     31  28  89 CALM      30.31S
$$

CAZ006-505>513-271400-
BAY AREA

CITY           SKY/WX    TMP DP  RH WIND       PRES   REMARKS
SANTA ROSA     CLEAR     32  31  96 NW6       30.28S WCI  26
SAN RAFAEL     N/A       43  MM  MM MISG
NAPA           PTCLDY    32  30  92 CALM      30.29F
CONCORD        CLEAR     35  30  82 S3        30.30S
OAKLAND CITY   N/A       43  MM  MM MISG
OAKLAND        CLEAR     45  31  58 CALM      30.28S
SAN FRAN CITY  N/A       47  MM  60 MISG
SAN FRAN ARPT  CLEAR     51  35  54 E8        30.29R
LIVERMORE      CLEAR     36  29  75 CALM      30.28S
HAYWARD        CLEAR     39  31  72 CALM      30.29R
REDWOOD CITY   N/A       MM  MM  MM MISG
MOFFETT ARPT   CLEAR     37  31  78 CALM      30.30S
SAN JOSE ARPT  CLEAR     36  29  75 CALM      30.29S
$$
CAZ034-037-514>518-271400-
CENTRAL COAST

CITY           SKY/WX    TMP DP  RH WIND       PRES   REMARKS
WATSONVILLE    CLEAR     35  31  85 CALM      30.29S
SALINAS        CLEAR     37  30  75 E8        30.27F WCI  31
MONTEREY       CLEAR     40  28  62 E3        30.26S
SAN LUIS OBISP CLEAR     34  29  82 CALM      30.25F
SANTA MARIA    CLEAR     36  29  75 S3        30.26S
$$
CAZ015-016-271400-
NORTHERN SACRAMENTO VALLEY

CITY           SKY/WX    TMP DP  RH WIND       PRES   REMARKS
REDDING        CLEAR     35  27  72 CALM      30.28S
RED BLUFF      CLEAR     37  28  70 NW8       30.30F WCI  31
OROVILLE       PTCLDY    37  28  70 E5        30.32S WCI  33
$$
CAZ016>018-271400-
SOUTHERN SACRAMENTO VALLEY

CITY           SKY/WX    TMP DP  RH WIND       PRES   REMARKS
AUBURN         CLEAR     36  27  69 E5        30.27R WCI  32
BEALE AFB      PTCLDY    33  29  87 NE5       30.30S WCI  28
LINCOLN        FAIR      32  28  86 N5        30.30R WCI  27
MARYSVILLE     PTCLDY    35  31  85 CALM      30.31S
SAC INTL ARPT  PTCLDY    36  33  89 E3        30.30S
MATHER AIRPORT CLEAR     36  36 100 CALM      30.30S
DOWNTOWN SAC   N/A       36  MM  MM MISG
SAC EXEC ARPT  CLEAR     35  32  88 CALM      30.30F
VACAVILLE      PTCLDY    39  30  70 N5        30.31S
TRAVIS AFB     CLEAR     36  33  88 SE3       30.29R
$$
CAZ019>021-271400-
SAN JOAQUIN VALLEY

CITY           SKY/WX    TMP DP  RH WIND       PRES   REMARKS
STOCKTON       CLEAR     32  30  92 SE7       30.29R WCI  26
MODESTO        CLEAR     33  31  92 E3        30.30R FOG
MERCED         CLEAR     34  31  88 CALM      30.30S FOG
LEMOORE        CLEAR     30  28  92 SE3       30.31F
FRESNO         PTCLDY    36  32  85 CALM      30.31F
HANFORD        FOG       31  30  96 SE3       30.31F VSB 1/4
PORTERVILLE    CLEAR     34  28  80 S3        30.31F
BAKERSFIELD    CLEAR     36  32  85 CALM      30.32S
$$
CAZ011-012-071-271400-
NORTHERN MOUNTAINS

CITY           SKY/WX    TMP DP  RH WIND       PRES   REMARKS
YREKA          CLEAR     24  22  91 CALM      30.33F
MOUNT SHASTA   CLEAR     23  18  81 NE3       30.28F
ALTURAS        CLEAR     19  14  81 CALM      30.29S
$$
CAZ011-012-071-271400-
SIERRA NEVADA MTNS

CITY           SKY/WX    TMP DP  RH WIND       PRES   REMARKS
BLUE CANYON    CLEAR     37 -12  12 CALM      30.21R
TRUCKEE        PTCLDY     7   5  92 CALM      30.28S
TAHOE VLY ARPT PTCLDY    11   4  73 CALM      30.25R
MAMMOTH LAKES  FAIR       7  -2  66 CALM      30.24S
$$



USA.gov is the U.S. government's official web portal to all federal, state and local government web resources and services.